Zurück zum Katalog

DELTA 2 DEB

AktivHEO
NORAD 26967·DEBRIS·🇺🇸 United States

Gestartet Mar 30, 1993 von Cape Canaveral Space Force Station

Loading…

Nächste Überflüge (nächste 24 Stunden)

TLE

AktuellSource: Space-Track

Epoche: Sep 5, 2026, 20:16 UTC

1 26967U 93017E   26248.84446131  .00017394  00000-0  30450-3 0  9992
2 26967  34.9553  79.5270 3668009 228.3301  93.9752  8.16035666637510

Verfolge DELTA 2 DEB in Echtzeit mit AllMySat

Download on the App Store